Wind_Speed
12 8 6 4 2 2 2 2 2 7 10 19 23 31 29 29 30 31 32 33 37 38 32 33 32 37 40 39 38 36 38 29 36 39 37 34 36 39 39 42 41 42 39 45
12 10 5 3 3 2 2 2 6 7 11 19 27 38 36 34 34 35 36 37 38 37 35 33 32 34 33 40 41 42 40 38 37 36 37 38 36 37 38 40 39 32 27 30
7 5 6 2 0 1 3 4 8 13 20 23 24 32 12 16 21 23 26 32 37 41 43 40 37 36 36 31 33 37 43 45 43 43 41 40 39 39 41 39 35 31 29 30
2 5 6 4 5 5 6 6 11 16 19 16 21 11 30 2 1 12 17 20 26 33 40 44 44 41 41 39 36 34 37 43 47 47 48 46 44 42 40 35 34 33 30 31
3 6 9 9 2 2 4 10 14 18 17 14 16 10 9 8 11 6 14 17 20 20 26 35 40 44 46 45 42 39 40 43 44 48 52 52 49 42 42 41 37 35 33 34
11 10 13 6 7 7 8 11 16 10 14 2 1 5 7 5 9 22 20 18 14 12 15 19 22 32 42 47 48 46 42 44 42 42 50 53 54 51 45 46 42 38 36 39
14 15 12 11 10 10 9 11 6 5 2 4 5 16 24 29 17 22 25 14 15 17 15 18 23 26 32 39 46 51 50 45 42 44 44 48 49 49 47 48 43 35 34 39
12 6 12 12 13 8 10 11 4 4 3 5 21 12 17 26 29 16 15 11 15 19 22 26 26 26 29 35 38 46 53 52 44 41 41 41 45 46 40 41 36 35 32 33
7 8 12 14 14 12 11 9 10 12 17 5 10 21 38 18 16 10 12 15 23 24 24 27 30 34 34 32 33 37 48 55 51 43 38 37 41 39 40 37 32 30 28 31
4 6 12 15 17 17 13 14 6 8 2 5 7 20 26 24 10 13 18 25 26 26 25 28 28 29 36 35 32 33 41 52 56 48 42 36 39 35 36 33 28 25 27 29
9 13 13 13 13 15 17 17 13 11 8 4 3 12 10 22 29 28 21 31 27 24 24 26 29 31 29 32 34 33 35 45 58 53 47 41 37 38 41 34 28 25 27 29
11 10 13 19 12 18 18 19 14 9 6 9 8 32 25 27 19 15 29 32 26 22 23 30 29 33 30 23 24 29 34 39 47 58 52 46 41 40 37 33 30 28 29 29
9 6 4 7 5 1 5 10 14 16 20 23 11 22 12 29 39 36 35 28 29 28 27 31 36 35 31 27 23 24 29 32 42 51 54 48 43 42 40 35 31 30 29 31
15 17 18 14 11 14 20 22 24 25 18 29 29 50 45 42 39 35 33 33 32 34 36 36 36 38 38 27 28 24 24 27 30 36 45 45 42 40 35 30 30 32 31 34
28 28 23 26 26 25 28 30 30 30 32 30 44 39 38 33 35 32 34 34 36 38 40 41 39 37 34 31 26 26 19 24 27 31 36 40 38 36 33 29 30 31 32 34
11 15 17 26 27 27 30 27 29 31 32 33 26 32 25 27 33 35 36 33 34 38 38 38 41 39 36 28 22 23 22 24 26 32 34 36 36 34 31 29 31 30 34 31
23 18 9 14 12 14 21 21 7 11 17 20 26 27 28 25 27 30 32 32 36 36 34 33 30 33 35 27 18 17 22 25 27 32 30 34 35 35 34 30 32 34 32 25
29 24 14 16 16 5 12 9 18 26 24 24 24 27 30 28 36 40 37 37 40 39 35 29 29 26 28 24 17 14 17 23 30 30 32 31 29 31 34 34 33 31 23 27
16 20 18 6 6 19 25 15 12 12 27 28 29 28 25 37 44 48 44 47 54 47 38 32 30 22 22 19 20 13 13 24 32 34 34 33 32 26 27 29 27 24 26 25
6 5 12 4 3 5 5 16 24 22 26 12 13 35 35 42 50 59 61 59 49 38 32 28 24 20 21 16 21 17 12 26 33 33 31 31 27 26 26 29 28 27 26 26
7 4 14 16 11 14 19 16 19 11 16 29 37 40 41 48 56 67 56 42 31 26 22 22 21 16 17 16 19 16 15 19 38 38 36 31 29 25 29 29 28 27 27 26
4 4 6 7 6 9 7 20 24 33 40 41 39 38 50 58 55 45 39 32 22 17 17 17 18 18 19 21 23 23 16 19 33 41 37 30 27 30 29 26 26 27 24 20
5 6 16 17 19 26 28 27 33 38 39 40 44 52 52 49 41 35 31 20 13 12 14 17 18 18 19 23 24 20 15 24 29 34 33 33 32 30 29 27 28 25 21 19
21 24 22 26 19 29 28 27 27 32 39 45 55 48 43 37 29 29 24 11 9 12 14 17 17 18 17 24 15 16 24 23 32 36 35 33 37 32 27 25 23 20 19 22
19 19 22 27 25 29 29 32 35 35 52 55 40 36 31 25 21 24 13 7 7 9 10 14 19 20 22 16 8 19 30 25 24 34 40 37 31 28 26 24 22 21 22 19
26 24 22 23 23 27 33 32 38 52 44 38 31 25 20 21 22 16 8 3 4 7 11 12 14 14 7 13 22 22 25 33 39 30 31 27 26 25 25 25 26 28 25 24
Wind_Direction
228 240 248 294 198 207 232 264 269 295 294 290 270 266 266 261 261 259 257 254 246 251 253 248 253 254 252 244 237 232 222 222 231 231 233 237 245 248 248 245 265 272 263 265
233 243 198 169 202 249 262 266 285 301 298 308 294 281 277 279 274 269 263 261 260 255 255 256 246 249 253 252 250 242 239 228 223 229 232 232 238 240 243 251 261 257 263 267
250 218 191 201 144 233 263 273 319 325 318 317 306 305 294 290 284 277 276 272 268 266 258 255 252 242 242 248 245 245 240 242 238 225 228 232 235 236 241 248 249 254 261 265
82 125 177 330 286 257 273 292 313 310 318 318 323 288 307 252 234 297 289 274 265 260 262 263 260 254 242 237 241 242 239 234 235 239 235 233 234 236 230 238 244 252 259 262
253 297 289 293 307 252 281 299 300 308 306 303 299 267 303 266 296 250 323 311 291 283 268 258 258 260 255 247 239 239 240 242 235 233 239 239 240 237 236 241 246 249 256 262
269 284 288 230 253 262 272 288 306 294 294 299 318 256 247 225 295 305 315 323 323 308 284 282 272 262 260 257 250 242 238 239 240 235 231 233 235 237 237 243 248 253 252 259
262 265 258 246 228 240 261 310 333 336 357 235 318 303 267 289 294 313 306 310 319 312 298 292 286 272 257 254 252 247 240 238 238 240 234 233 234 234 237 245 246 246 243 254
226 220 232 222 229 258 286 291 217 244 229 244 295 255 274 298 311 327 295 293 316 308 290 284 282 282 275 260 252 249 244 239 236 237 243 246 242 236 235 243 242 237 239 250
200 227 224 238 245 268 278 225 259 259 273 295 240 261 284 299 333 328 325 306 301 289 285 283 280 277 276 274 265 259 245 237 236 234 237 241 245 246 237 242 232 234 238 253
251 269 234 250 272 265 241 268 216 206 258 259 263 269 255 290 313 313 308 298 287 289 293 286 280 286 274 272 270 259 254 241 232 232 234 236 242 235 229 233 236 241 250 262
266 253 262 262 244 249 254 223 235 229 231 202 300 269 282 291 303 301 294 323 314 300 299 289 290 305 299 273 262 262 257 248 233 229 234 232 232 236 237 235 242 252 257 258
247 256 249 274 284 262 248 237 226 219 217 231 255 266 277 303 327 274 312 309 305 297 292 286 303 312 310 270 256 258 258 251 239 228 231 233 233 235 242 244 241 245 254 256
272 255 266 305 256 187 208 236 238 241 274 257 248 268 267 292 298 297 298 295 299 299 291 293 296 302 311 269 255 254 252 255 241 231 229 231 235 240 246 252 236 242 252 258
274 267 248 242 259 278 279 267 266 272 264 271 248 280 293 297 305 302 297 292 294 295 291 296 293 292 305 267 251 254 249 260 251 236 226 229 232 238 243 234 240 244 254 259
257 261 261 262 269 273 276 277 281 268 266 254 282 282 298 303 302 303 306 299 298 293 290 287 288 293 300 264 244 248 262 254 251 228 217 225 229 227 231 231 240 245 254 260
251 246 256 266 275 281 288 279 278 277 273 272 291 294 326 310 308 305 298 296 299 294 291 289 281 284 297 261 246 250 253 248 231 223 216 216 220 220 222 231 239 247 260 259
272 265 280 277 283 287 283 287 262 281 281 272 279 299 311 311 311 309 302 299 307 304 292 290 286 276 283 292 243 247 248 233 217 213 208 208 212 215 225 235 245 254 253 232
254 258 256 273 284 246 265 259 289 292 292 293 285 296 292 295 307 306 306 302 305 301 290 290 286 277 276 285 292 252 250 217 209 202 201 201 212 228 236 239 240 244 208 202
229 235 237 240 220 282 291 279 288 283 295 303 292 287 276 299 302 305 312 309 306 301 288 287 281 279 254 262 278 259 239 218 206 206 204 210 216 225 230 226 212 190 194 197
43 229 220 240 290 252 293 299 301 300 294 310 300 301 293 304 301 306 310 305 298 289 284 278 265 260 249 263 281 289 248 211 208 204 209 212 226 227 229 204 194 198 196 203
325 252 244 260 262 270 282 292 301 289 301 296 303 307 299 301 304 303 304 299 291 281 263 257 258 254 242 269 279 288 255 235 209 203 209 217 218 218 203 194 195 197 199 207
286 278 262 273 245 268 283 302 302 297 299 305 310 300 305 303 303 302 304 297 287 265 249 241 245 245 237 258 272 293 259 219 200 201 206 211 210 196 186 191 198 198 203 208
299 265 288 274 269 278 295 299 291 301 303 309 304 308 308 308 308 303 305 296 275 247 225 225 232 226 244 261 275 282 209 173 178 193 197 199 185 181 191 200 204 202 200 207
312 311 286 298 307 308 303 307 311 314 305 305 307 310 311 308 306 306 310 293 267 230 220 224 224 236 258 283 274 201 182 178 185 185 182 179 177 194 189 190 190 199 197 185
317 304 310 304 321 313 319 322 315 310 310 310 311 310 309 305 305 309 300 286 255 228 220 223 233 251 268 258 215 190 173 179 175 174 176 180 186 189 185 189 182 170 165 166
329 313 298 302 330 318 319 316 321 314 312 309 310 307 302 299 302 299 275 265 284 200 208 230 258 261 244 184 178 172 153 162 167 138 166 170 172 175 176 167 163 161 165 175
Height
3065 3066 3066 3066 3066 3067 3067 3068 3068 3069 3069 3066 3064 3060 3063 3065 3065 3066 3067 3068 3071 3072 3076 3081 3082 3085 3089 3093 3097 3100 3100 3105 3108 3111 3112 3115 3119 3123 3126 3130 3134 3136 3137 3140
3064 3064 3065 3065 3065 3065 3065 3066 3066 3067 3067 3066 3063 3054 3056 3059 3059 3060 3061 3062 3062 3066 3068 3071 3075 3079 3080 3084 3088 3092 3095 3098 3099 3102 3105 3107 3112 3115 3119 3125 3128 3130 3131 3133
3061 3063 3063 3064 3064 3064 3064 3064 3064 3064 3062 3061 3055 3047 3048 3050 3052 3052 3054 3055 3056 3056 3057 3061 3065 3069 3073 3076 3078 3080 3086 3088 3092 3093 3095 3099 3102 3105 3111 3117 3120 3123 3126 3128
3060 3061 3062 3063 3063 3063 3063 3062 3062 3062 3061 3059 3057 3044 3041 3042 3045 3046 3045 3045 3045 3046 3047 3050 3053 3058 3063 3067 3068 3068 3073 3076 3081 3086 3086 3090 3093 3096 3103 3109 3112 3117 3118 3120
3061 3060 3060 3060 3060 3060 3060 3060 3059 3058 3057 3055 3054 3051 3036 3037 3038 3037 3039 3038 3037 3036 3036 3039 3041 3044 3048 3053 3057 3058 3060 3064 3070 3073 3076 3081 3084 3088 3096 3100 3103 3107 3109 3110
3057 3057 3057 3057 3058 3058 3058 3057 3056 3053 3052 3051 3048 3048 3034 3033 3033 3032 3033 3033 3031 3030 3031 3032 3032 3033 3035 3039 3044 3047 3050 3054 3059 3061 3065 3068 3072 3079 3084 3089 3093 3097 3100 3102
3054 3053 3053 3053 3054 3055 3055 3055 3054 3053 3051 3049 3046 3042 3025 3027 3029 3030 3030 3029 3026 3026 3026 3025 3023 3022 3023 3025 3028 3033 3038 3043 3048 3051 3054 3058 3063 3069 3073 3079 3084 3087 3090 3094
3048 3050 3049 3050 3051 3052 3052 3053 3055 3055 3051 3047 3045 3033 3018 3022 3024 3023 3021 3022 3022 3022 3022 3020 3017 3015 3013 3014 3017 3019 3025 3030 3037 3041 3045 3050 3055 3059 3064 3069 3074 3077 3081 3085
3044 3046 3046 3047 3047 3049 3048 3049 3050 3048 3046 3045 3036 3026 3015 3016 3019 3020 3021 3020 3019 3017 3015 3011 3007 3005 3003 3006 3008 3009 3011 3017 3024 3031 3036 3040 3046 3051 3056 3062 3065 3068 3072 3075
3042 3043 3043 3044 3043 3043 3043 3045 3046 3046 3047 3041 3027 3021 3014 3014 3015 3017 3017 3016 3012 3010 3008 3004 3001 2998 2996 2997 2998 2999 2999 3002 3010 3019 3026 3032 3037 3044 3049 3053 3055 3059 3063 3064
3040 3040 3040 3039 3037 3038 3039 3038 3040 3041 3040 3040 3034 3011 3009 3011 3011 3010 3010 3009 3007 3003 3001 2997 2996 2992 2988 2988 2987 2988 2989 2990 2998 3008 3015 3022 3029 3036 3041 3045 3047 3051 3054 3056
3037 3035 3034 3032 3031 3030 3030 3032 3034 3035 3035 3033 3032 3003 3004 3007 3006 3005 3002 3002 3000 2998 2995 2990 2989 2985 2982 2980 2979 2977 2979 2980 2984 2994 3003 3012 3021 3027 3032 3036 3040 3043 3045 3048
3032 3030 3029 3028 3029 3026 3026 3028 3030 3030 3028 3025 3026 3000 3001 2999 3002 3001 2997 2994 2993 2991 2988 2985 2982 2979 2977 2974 2971 2969 2968 2969 2975 2982 2992 3002 3010 3018 3023 3027 3031 3035 3037 3040
3028 3025 3026 3025 3024 3024 3024 3025 3025 3025 3020 3011 3009 2992 2994 2993 2991 2989 2987 2986 2985 2983 2979 2976 2973 2972 2970 2967 2964 2963 2962 2962 2966 2974 2982 2992 3002 3010 3015 3019 3023 3027 3030 3032
3022 3018 3020 3019 3019 3019 3017 3015 3014 3013 3008 3007 2993 2996 2986 2987 2985 2982 2979 2978 2975 2972 2969 2967 2965 2962 2960 2958 2955 2955 2955 2957 2960 2968 2976 2985 2995 3001 3006 3011 3015 3019 3022 3024
3014 3014 3014 3011 3013 3012 3008 3004 3003 3001 2998 2995 2991 2985 2985 2981 2978 2976 2973 2970 2966 2961 2958 2955 2954 2951 2950 2948 2947 2948 2951 2951 2955 2962 2970 2977 2985 2992 2998 3003 3007 3011 3014 3015
3012 3012 3012 3006 3007 3006 3000 2992 2992 2992 2990 2989 2985 2981 2979 2976 2974 2971 2967 2964 2959 2952 2947 2945 2943 2941 2943 2942 2938 2940 2943 2944 2949 2956 2964 2970 2978 2984 2990 2995 2999 3002 3004 3007
3003 3007 3008 3002 3002 3000 2989 2988 2987 2985 2984 2982 2978 2976 2973 2969 2964 2961 2959 2954 2950 2946 2940 2937 2934 2933 2934 2933 2929 2932 2935 2937 2944 2950 2957 2964 2971 2978 2983 2987 2991 2993 2998 3003
2997 3000 3001 3000 2996 2989 2985 2983 2982 2979 2977 2976 2973 2971 2966 2960 2951 2947 2948 2944 2936 2931 2928 2926 2924 2924 2925 2925 2926 2925 2929 2931 2938 2944 2952 2959 2966 2972 2976 2980 2984 2990 2995 3001
2993 2996 2999 2996 2995 2991 2980 2979 2977 2974 2970 2968 2967 2964 2958 2951 2938 2933 2933 2927 2920 2917 2916 2914 2914 2915 2917 2920 2920 2919 2922 2925 2932 2939 2946 2953 2959 2964 2971 2975 2981 2987 2993 2999
2997 2996 2994 2994 2992 2982 2977 2975 2974 2973 2971 2963 2959 2953 2948 2941 2937 2921 2914 2910 2906 2904 2903 2903 2904 2906 2910 2912 2912 2913 2914 2917 2924 2932 2940 2948 2953 2960 2965 2972 2979 2985 2991 2996
2996 2994 2992 2990 2986 2980 2975 2973 2973 2967 2959 2954 2948 2943 2936 2929 2919 2911 2903 2898 2895 2894 2895 2896 2898 2899 2902 2904 2904 2905 2906 2908 2916 2926 2935 2945 2951 2957 2962 2971 2977 2983 2989 2994
2994 2993 2990 2989 2979 2976 2973 2967 2964 2958 2950 2944 2937 2934 2923 2913 2906 2902 2894 2890 2888 2887 2888 2889 2891 2894 2896 2896 2897 2897 2898 2904 2912 2921 2931 2940 2948 2954 2964 2970 2976 2981 2987 2991
2988 2985 2981 2979 2972 2968 2965 2963 2958 2950 2942 2935 2928 2919 2913 2905 2899 2895 2890 2886 2884 2883 2883 2885 2887 2890 2891 2891 2890 2892 2897 2903 2909 2919 2927 2936 2945 2954 2962 2968 2975 2980 2985 2990
2984 2979 2975 2970 2965 2960 2957 2954 2948 2939 2930 2920 2914 2910 2905 2900 2896 2891 2887 2883 2882 2882 2883 2883 2884 2885 2885 2886 2885 2888 2895 2902 2907 2911 2925 2937 2945 2953 2960 2966 2972 2978 2985 2991
2976 2972 2970 2964 2962 2957 2951 2946 2940 2929 2918 2911 2905 2902 2900 2896 2891 2888 2884 2882 2881 2881 2881 2881 2881 2879 2878 2881 2886 2890 2895 2905 2909 2911 2930 2939 2945 2952 2959 2965 2971 2978 2984 2988